Time,TemperatureF,DewpointF,PressureIn,WindDirection,WindDirectionDegrees,WindSpeedMPH,WindSpeedGustMPH,Humidity,HourlyPrecipIn,Conditions,Clouds,dailyrainin,SoftwareType,DateUTC
2013-10-27 00:11:00,44.0,36.0,29.96,South,185,0.0,1.0,74,0.00,,,0.00,,2013-10-27 07:11:00,
2013-10-27 00:21:00,42.0,33.0,29.96,SSE,158,2.0,2.0,71,0.00,,,0.00,,2013-10-27 07:21:00,
2013-10-27 00:42:00,40.0,32.0,29.96,SSE,158,2.0,2.0,73,0.00,,,0.00,,2013-10-27 07:42:00,
2013-10-27 00:52:00,40.0,32.0,29.96,SSE,157,2.0,3.0,73,0.00,,,0.00,,2013-10-27 07:52:00,
2013-10-27 01:11:00,40.0,32.0,29.96,SSE,158,4.0,6.0,74,0.00,,,0.00,,2013-10-27 08:11:00,
2013-10-27 01:22:00,40.0,32.0,29.96,SSE,158,3.0,3.0,74,0.00,,,0.00,,2013-10-27 08:22:00,
2013-10-27 01:42:00,40.0,33.0,29.96,SSE,147,4.0,5.0,75,0.00,,,0.00,,2013-10-27 08:42:00,
2013-10-27 01:52:00,41.0,35.0,29.96,SSE,150,6.0,8.0,78,0.00,,,0.00,,2013-10-27 08:52:00,
2013-10-27 02:12:00,41.0,34.0,29.93,SSE,158,4.0,5.0,75,0.00,,,0.00,,2013-10-27 09:12:00,
2013-10-27 02:21:00,42.0,35.0,29.93,SE,134,7.0,8.0,77,0.00,,,0.00,,2013-10-27 09:21:00,
2013-10-27 02:43:00,42.0,35.0,29.93,SSE,147,6.0,8.0,76,0.00,,,0.00,,2013-10-27 09:43:00,
2013-10-27 02:53:00,42.0,35.0,29.93,SSE,155,3.0,7.0,75,0.00,,,0.00,,2013-10-27 09:53:00,
2013-10-27 03:12:00,41.0,34.0,29.93,WSW,248,1.0,5.0,76,0.00,,,0.00,,2013-10-27 10:12:00,
2013-10-27 03:23:00,41.0,37.0,29.93,WNW,292,1.0,5.0,85,0.00,,,0.00,,2013-10-27 10:23:00,
2013-10-27 03:42:00,42.0,36.0,29.90,SSE,158,3.0,3.0,78,0.00,,,0.00,,2013-10-27 10:42:00,
2013-10-27 03:53:00,42.0,35.0,29.90,SSE,158,3.0,5.0,77,0.00,,,0.00,,2013-10-27 10:53:00,
2013-10-27 04:11:00,41.0,34.0,29.87,SSE,158,3.0,5.0,77,0.00,,,0.00,,2013-10-27 11:11:00,
2013-10-27 04:22:00,41.0,34.0,29.87,SSE,158,5.0,6.0,77,0.00,,,0.00,,2013-10-27 11:22:00,
2013-10-27 04:42:00,40.0,33.0,29.84,SSE,158,0.0,2.0,77,0.00,,,0.00,,2013-10-27 11:42:00,
2013-10-27 04:52:00,38.0,31.0,29.84,SSE,158,0.0,2.0,75,0.00,,,0.00,,2013-10-27 11:52:00,
2013-10-27 05:12:00,40.0,34.0,29.84,SW,225,1.0,5.0,78,0.00,,,0.00,,2013-10-27 12:12:00,
2013-10-27 05:22:00,41.0,37.0,29.84,WNW,292,1.0,2.0,84,0.00,,,0.00,,2013-10-27 12:22:00,
2013-10-27 05:41:00,40.0,34.0,29.84,South,180,1.0,2.0,79,0.00,,,0.00,,2013-10-27 12:41:00,
2013-10-27 05:52:00,39.0,33.0,29.84,SSE,158,1.0,2.0,78,0.00,,,0.00,,2013-10-27 12:52:00,
2013-10-27 06:11:00,39.0,37.0,29.84,West,263,3.0,5.0,91,0.00,,,0.00,,2013-10-27 13:11:00,
2013-10-27 06:21:00,39.0,37.0,29.84,WSW,248,2.0,5.0,94,0.00,,,0.00,,2013-10-27 13:21:00,
2013-10-27 06:42:00,41.0,39.0,29.81,SE,133,1.0,5.0,93,0.00,,,0.00,,2013-10-27 13:42:00,
2013-10-27 06:52:00,42.0,39.0,29.81,WSW,248,1.0,6.0,88,0.00,,,0.00,,2013-10-27 13:52:00,
2013-10-27 07:11:00,42.0,37.0,29.78,South,175,5.0,6.0,82,0.00,,,0.00,,2013-10-27 14:11:00,
2013-10-27 07:21:00,43.0,37.0,29.78,SSW,193,5.0,6.0,79,0.00,,,0.00,,2013-10-27 14:21:00,
2013-10-27 07:42:00,45.0,35.0,29.75,South,190,3.0,5.0,67,0.00,,,0.00,,2013-10-27 14:42:00,
2013-10-27 07:52:00,45.0,34.0,29.75,SSW,212,2.0,5.0,65,0.00,,,0.00,,2013-10-27 14:52:00,
2013-10-27 08:11:00,46.0,35.0,29.72,South,178,4.0,6.0,64,0.00,,,0.00,,2013-10-27 15:11:00,
2013-10-27 08:21:00,46.0,33.0,29.72,SSW,192,3.0,7.0,61,0.00,,,0.00,,2013-10-27 15:21:00,
2013-10-27 08:44:00,46.0,32.0,29.70,SSW,202,3.0,6.0,57,0.00,,,0.00,,2013-10-27 15:44:00,
2013-10-27 08:54:00,47.0,31.0,29.70,SSW,192,3.0,7.0,53,0.00,,,0.00,,2013-10-27 15:54:00,
2013-10-27 09:13:00,49.0,34.0,29.70,SW,232,3.0,6.0,57,0.00,,,0.00,,2013-10-27 16:13:00,
2013-10-27 09:24:00,46.0,32.0,29.70,West,279,5.0,8.0,59,0.00,,,0.00,,2013-10-27 16:24:00,
2013-10-27 09:43:00,40.0,36.0,29.72,NW,308,3.0,6.0,85,0.00,,,0.00,,2013-10-27 16:43:00,
2013-10-27 09:53:00,40.0,36.0,29.72,South,187,2.0,3.0,85,0.00,,,0.00,,2013-10-27 16:53:00,
2013-10-27 10:13:00,41.0,39.0,29.75,WNW,292,6.0,10.0,94,0.00,,,0.00,,2013-10-27 17:13:00,
2013-10-27 10:22:00,40.0,39.0,29.75,NW,311,6.0,8.0,96,0.02,,,0.02,,2013-10-27 17:22:00,
2013-10-27 10:43:00,40.0,39.0,29.75,WNW,297,4.0,6.0,98,0.06,,,0.06,,2013-10-27 17:43:00,
2013-10-27 10:53:00,40.0,39.0,29.75,NW,318,2.0,6.0,98,0.07,,,0.07,,2013-10-27 17:53:00,
2013-10-27 11:12:00,40.0,39.0,29.72,WNW,286,9.0,12.0,98,0.11,,,0.11,,2013-10-27 18:12:00,
2013-10-27 11:22:00,40.0,39.0,29.72,West,267,4.0,10.0,98,0.10,,,0.12,,2013-10-27 18:22:00,
2013-10-27 11:43:00,41.0,40.0,29.72,West,272,6.0,10.0,98,0.06,,,0.12,,2013-10-27 18:43:00,
2013-10-27 11:52:00,41.0,40.0,29.72,SW,221,3.0,8.0,98,0.05,,,0.12,,2013-10-27 18:52:00,
2013-10-27 12:11:00,46.0,41.0,29.70,WNW,292,6.0,10.0,82,0.01,,,0.12,,2013-10-27 19:11:00,
2013-10-27 12:22:00,45.0,38.0,29.70,NW,311,5.0,9.0,75,0.00,,,0.12,,2013-10-27 19:22:00,
2013-10-27 12:42:00,44.0,37.0,29.67,WSW,248,5.0,13.0,77,0.00,,,0.12,,2013-10-27 19:42:00,
2013-10-27 12:52:00,47.0,39.0,29.67,West,279,6.0,10.0,74,0.00,,,0.12,,2013-10-27 19:52:00,
2013-10-27 13:12:00,47.0,37.0,29.64,West,271,9.0,16.0,68,0.00,,,0.12,,2013-10-27 20:12:00,
2013-10-27 13:22:00,46.0,37.0,29.64,WNW,303,9.0,14.0,70,0.00,,,0.12,,2013-10-27 20:22:00,
2013-10-27 13:42:00,47.0,34.0,29.64,NW,319,11.0,15.0,60,0.00,,,0.12,,2013-10-27 20:42:00,
2013-10-27 13:52:00,45.0,34.0,29.64,NW,308,11.0,15.0,64,0.00,,,0.12,,2013-10-27 20:52:00,
2013-10-27 14:11:00,47.0,37.0,29.64,NW,317,9.0,15.0,68,0.00,,,0.12,,2013-10-27 21:11:00,
2013-10-27 14:21:00,46.0,32.0,29.64,NW,318,13.0,16.0,58,0.00,,,0.12,,2013-10-27 21:21:00,
2013-10-27 14:43:00,45.0,32.0,29.64,NW,311,12.0,17.0,60,0.00,,,0.12,,2013-10-27 21:43:00,
2013-10-27 14:54:00,44.0,33.0,29.64,NW,304,8.0,15.0,64,0.00,,,0.12,,2013-10-27 21:54:00,
2013-10-27 15:13:00,44.0,32.0,29.64,WNW,286,9.0,16.0,62,0.00,,,0.12,,2013-10-27 22:13:00,
2013-10-27 15:24:00,42.0,33.0,29.64,NW,326,12.0,16.0,69,0.00,,,0.12,,2013-10-27 22:24:00,
2013-10-27 15:43:00,39.0,37.0,29.64,NNW,328,7.0,10.0,92,0.07,,,0.19,,2013-10-27 22:43:00,
2013-10-27 15:54:00,40.0,38.0,29.64,NNW,339,6.0,10.0,94,0.09,,,0.21,,2013-10-27 22:54:00,
2013-10-27 16:11:00,41.0,38.0,29.64,NW,325,6.0,9.0,90,0.10,,,0.22,,2013-10-27 23:11:00,
2013-10-27 16:22:00,41.0,38.0,29.64,NNW,343,5.0,8.0,88,0.10,,,0.22,,2013-10-27 23:22:00,
2013-10-27 16:42:00,40.0,37.0,29.67,North,353,6.0,10.0,88,0.03,,,0.22,,2013-10-27 23:42:00,
2013-10-27 16:52:00,40.0,37.0,29.67,North,0,3.0,8.0,88,0.01,,,0.22,,2013-10-27 23:52:00,
2013-10-27 17:11:00,40.0,37.0,29.67,North,356,3.0,5.0,88,0.00,,,0.22,,2013-10-28 00:11:00,
2013-10-27 17:21:00,40.0,36.0,29.67,NNW,345,5.0,6.0,87,0.00,,,0.22,,2013-10-28 00:21:00,
2013-10-27 17:42:00,40.0,38.0,29.67,NNW,338,5.0,6.0,93,0.00,,,0.22,,2013-10-28 00:42:00,
2013-10-27 17:52:00,40.0,38.0,29.67,NNW,338,6.0,10.0,94,0.00,,,0.22,,2013-10-28 00:52:00,
2013-10-27 18:12:00,40.0,39.0,29.67,NNW,341,7.0,7.0,97,0.00,,,0.22,,2013-10-28 01:12:00,
2013-10-27 18:21:00,39.0,38.0,29.67,NNW,348,7.0,9.0,97,0.00,,,0.22,,2013-10-28 01:21:00,
2013-10-27 18:42:00,39.0,38.0,29.67,NNW,332,6.0,9.0,98,0.00,,,0.22,,2013-10-28 01:42:00,
2013-10-27 18:52:00,39.0,38.0,29.67,North,352,5.0,8.0,98,0.01,,,0.23,,2013-10-28 01:52:00,
2013-10-27 19:11:00,39.0,38.0,29.67,NNW,327,7.0,10.0,98,0.02,,,0.24,,2013-10-28 02:11:00,
2013-10-27 19:21:00,39.0,38.0,29.67,NNW,343,6.0,10.0,98,0.02,,,0.24,,2013-10-28 02:21:00,
2013-10-27 19:42:00,39.0,38.0,29.67,North,357,5.0,8.0,98,0.02,,,0.24,,2013-10-28 02:42:00,
2013-10-27 19:52:00,39.0,38.0,29.67,NNW,340,5.0,8.0,98,0.01,,,0.24,,2013-10-28 02:52:00,
2013-10-27 20:11:00,39.0,38.0,29.67,NNW,338,6.0,9.0,98,0.00,,,0.24,,2013-10-28 03:11:00,
2013-10-27 20:22:00,39.0,38.0,29.67,NNW,338,5.0,9.0,98,0.00,,,0.24,,2013-10-28 03:22:00,
2013-10-27 20:44:00,39.0,38.0,29.67,NNW,346,7.0,8.0,98,0.01,,,0.25,,2013-10-28 03:44:00,
2013-10-27 20:54:00,39.0,38.0,29.67,NNW,342,7.0,12.0,98,0.01,,,0.25,,2013-10-28 03:54:00,
2013-10-27 21:13:00,39.0,38.0,29.67,North,355,5.0,8.0,98,0.01,,,0.25,,2013-10-28 04:13:00,
2013-10-27 21:23:00,39.0,38.0,29.67,North,354,5.0,7.0,98,0.02,,,0.26,,2013-10-28 04:23:00,
2013-10-27 21:43:00,39.0,38.0,29.67,NNW,339,4.0,7.0,98,0.02,,,0.27,,2013-10-28 04:43:00,
2013-10-27 21:53:00,39.0,38.0,29.67,NNW,348,5.0,9.0,98,0.02,,,0.27,,2013-10-28 04:53:00,
2013-10-27 22:13:00,40.0,39.0,29.67,North,353,5.0,8.0,98,0.02,,,0.27,,2013-10-28 05:13:00,
2013-10-27 22:22:00,40.0,39.0,29.67,NNW,338,5.0,8.0,98,0.02,,,0.28,,2013-10-28 05:22:00,
2013-10-27 22:42:00,40.0,39.0,29.67,North,3,5.0,8.0,98,0.01,,,0.28,,2013-10-28 05:42:00,
2013-10-27 22:53:00,40.0,39.0,29.67,NNW,343,3.0,8.0,98,0.02,,,0.30,,2013-10-28 05:53:00,
2013-10-27 23:12:00,40.0,39.0,29.67,NNE,14,5.0,10.0,98,0.04,,,0.31,,2013-10-28 06:12:00,
2013-10-27 23:22:00,40.0,39.0,29.67,NW,323,6.0,9.0,98,0.02,,,0.31,,2013-10-28 06:22:00,
2013-10-27 23:42:00,41.0,40.0,29.67,NNE,20,7.0,12.0,98,0.04,,,0.32,,2013-10-28 06:42:00,
2013-10-27 23:52:00,41.0,40.0,29.67,North,10,6.0,12.0,98,0.04,,,0.33,,2013-10-28 06:52:00,